Location: Fauquembergues
(50.6005°N, 2.0987°E)
Time: 20:44:58
(UTC+00:00)

ATLAS 5 CENTAUR R/B - Pass Details

Date: 14 July 2020
Orbit: 273 x 14305 km, 60.7° (Epoch: 14 August)

Event Time Altitude Azimuth Distance (km) Brightness Sun altitude
Rises 02:42:12 0° 298° (WNW) 2,545 5.1 -9.2°
Reaches altitude 10° 02:43:44 10° 286° (WNW) 1,991 4.4 -9.0°
Maximum altitude 02:47:30 32° 221° (SW) 1,772 3.8 -8.7°
Drops below altitude 10° 02:57:50 10° 166° (SSE) 5,667 6.6 -7.6°
Sets 03:06:15 0° 161° (SSE) 8,795 7.6 -6.7°
